Location: El Manguito
(10.2358°N, 67.3634°W)
Time: 16:24:27
(UTC+00:00)

CZ-4B R/B - Pass Details

Date: 01 April 2023
Orbit: 808 x 881 km, 99.0° (Epoch: 01 June)

Event Time Altitude Azimuth Distance (km) Brightness Sun altitude
Rises 23:20:34 0° 148° (SSE) 3,468 6.0 -10.7°
Reaches altitude 10° 23:23:09 10° 139° (SE) 2,532 5.2 -11.4°
Maximum altitude 23:28:12 34° 75° (ENE) 1,400 3.9 -12.6°
Drops below altitude 10° 23:33:14 10° 12° (NNE) 2,523 5.6 -13.8°
Sets 23:35:48 0° 3° (N) 3,455 6.4 -14.5°
